Location: Doignies
(50.1284°N, 3.0128°E)
Time: 17:10:15
(UTC+00:00)

Daily predictions for brighter satellites

Satellite Brightness Start Highest point End
(mag) Time Altitude Azimuth Time Altitude Azimuth Time Altitude Azimuth
Geosat 4.2 20:38:14 10° SE 20:43:13 68° NE 20:48:14 10° NNW
Landsat 7 4.2 20:39:00 10° S 20:43:44 65° WSW 20:48:29 10° NNW
Cosmos 1544 Rocket 4.4 20:39:36 10° N 20:43:46 36° ENE 20:47:53 10° SE
CZ-2C R/B 3.9 20:39:56 10° NNE 20:44:42 64° ESE 20:49:26 10° S
Spot 2 Rocket 3.6 20:41:29 10° SSE 20:46:30 69° ENE 20:51:34 10° N
Okean 1 Rocket 4.0 20:42:19 10° NNW 20:46:31 48° W 20:50:43 10° SSW
Cosmos 2173 Rocket 4.3 20:40:45 10° N 20:47:05 60° ENE 20:53:23 10° SSE
Cosmos 1707 2.9 20:43:38 10° SSW 20:47:31 79° W 20:51:26 10° N
Okean 2 4.2 20:44:12 10° SSW 20:48:12 54° WNW 20:52:14 10° N
Lacrosse 5 rocket 2.5 20:45:41 10° S 20:48:15 18° SE 20:50:46 10° E
Cosmos 1455 Rocket 3.2 20:44:17 10° N 20:48:44 63° ENE 20:53:09 10° SSE
Cosmos 1420 Rocket 4.4 20:44:08 10° SSW 20:49:18 70° WNW 20:54:33 10° NNE
ERS-1 Rocket 3.4 20:45:10 10° SE 20:50:02 52° ENE 20:54:56 10° N
In-Cosmos 22 4.1 20:45:14 10° S 20:50:29 71° E 20:55:47 10° NNE
Meteor 2-20 Rocket 4.5 20:52:07 10° S 20:58:14 82° E 21:04:22 10° NNE
BREEZE-M DEB (TANK) 3.1 20:58:10 10° S 21:00:09 19° SE 21:03:08 10° E
USA 215 4.4 20:56:51 10° E 21:01:21 19° ESE 21:05:49 10° SSE
SL-23 DEB 4.3 20:57:46 10° W 21:01:24 77° N 21:07:17 10° E
Cosmos 2333 Rocket 3.3 20:56:57 10° SSE 21:01:36 26° ESE 21:06:15 10° NE
Cosmos 1727 Rocket 4.1 20:55:42 10° S 21:02:01 88° W 21:08:20 10° N
Cosmos 1953 2.4 21:01:53 10° N 21:05:59 88° ENE 21:10:03 10° S
Cosmos 1741 Rocket 4.3 21:01:32 10° NNW 21:06:46 68° WSW 21:12:00 10° SSE
Cosmos 1626 2.6 21:04:31 10° SSE 21:07:59 41° E 21:11:29 10° NNE
USA 238 DEB 4.3 21:02:41 10° WSW 21:09:15 64° NW 21:16:13 10° NE
USA 238 4.3 21:02:48 10° WSW 21:09:21 64° NW 21:16:19 10° NE
Cosmos 1844 3.7 21:05:44 10° NNW 21:11:20 84° ENE 21:16:41 11° SSE
SL-14 R/B 4.3 21:08:37 11° SSE 21:12:08 32° E 21:15:44 10° NNE
Cosmos 2219 Rocket 3.2 21:08:00 10° SSE 21:12:41 27° ESE 21:17:21 10° NE
Cosmos 1802 Rocket 4.1 21:11:01 10° N 21:17:18 77° E 21:23:39 10° SSE
CENTAUR R/B 3.3 21:11:16 10° WSW 21:17:23 61° NW 21:24:45 10° NE
Cosmos 1536 Rocket 4.4 21:15:05 11° SSE 21:18:51 34° E 21:22:54 10° NNE
DNEPR-1 R/B 3.7 21:18:27 10° NW 21:22:42 69° NE 21:26:37 12° SE
NOSS 8 (A) 4.3 21:21:51 10° SW 21:25:04 74° NW 21:28:00 10° NE
KORONAS-FOTON 4.1 21:23:17 10° SSW 21:27:03 67° WNW 21:30:51 10° N
Cosmos 1025 Rocket 3.0 21:23:13 10° S 21:27:34 73° E 21:31:57 10° NNE
Cosmos 389 Rocket 4.4 21:25:23 10° NNE 21:27:51 18° ENE 21:30:14 10° ESE
Aureole 1 Rocket 4.2 21:23:11 10° NNW 21:28:50 71° WSW 21:35:49 11° SSE
Cosmos 2237 Rocket 4.1 21:28:06 10° ESE 21:29:42 11° E 21:31:17 10° ENE
Cosmos 1459 Rocket 4.1 21:25:32 10° NNW 21:31:35 72° W 21:37:35 10° S
CARTOSAT-1 4.3 21:27:57 10° S 21:32:09 49° W 21:36:22 10° NNW
Cosmos 1461 3.7 21:28:51 10° NW 21:32:52 42° WSW 21:36:05 14° S
Cosmos 2228 4.3 21:29:47 10° N 21:33:41 29° ENE 21:36:56 13° SE
Resurs 01 Rocket 4.0 21:30:44 10° SW 21:33:48 18° W 21:36:54 10° NW
Cosmos 2360 Rocket 2.2 21:29:05 10° SSW 21:34:44 87° ESE 21:40:25 10° NNE
SL-16 R/B 3.2 21:29:17 10° SW 21:34:48 51° NW 21:40:21 10° NNE
Cosmos 2322 Rocket 2.9 21:31:12 10° SW 21:36:50 60° WNW 21:42:31 10° NNE
USA 267 3.8 21:30:59 10° E 21:37:24 60° NNE 21:43:50 10° WNW
Cosmos 1900 4.5 21:36:15 10° NW 21:41:08 65° WSW 21:44:58 16° SSE
Cosmos 1975 Rocket 4.0 21:37:19 10° SSW 21:41:31 47° WNW 21:45:48 10° N
Cosmos 1455 4.3 21:40:33 10° NNE 21:43:09 17° ENE 21:45:43 10° ESE
Cosmos 1674 3.8 21:40:03 10° SSW 21:43:36 42° WNW 21:47:09 10° N
ATLAS CENTAUR R/B 1.5 21:40:37 10° NW 21:44:55 79° SW 21:48:22 17° SSE
Cosmos 1110 Rocket 4.1 21:40:08 10° SSW 21:45:19 83° WNW 21:50:35 10° NNE
SPOT 5 3.5 21:41:32 11° S 21:46:29 56° W 21:51:19 10° NNW
Cosmos 968 Rocket 3.6 21:44:24 10° NNW 21:49:30 65° ENE 21:53:28 17° SE
Cosmos 1300 2.6 21:47:57 10° N 21:51:47 87° ENE 21:54:30 18° S
COSMOS 2428 3.1 21:48:21 12° S 21:53:15 44° ESE 21:58:40 10° NE
Cosmos 2061 Rocket 4.2 21:46:59 10° NNW 21:53:26 77° W 21:59:13 13° S
Terra 2.1 21:49:22 14° S 21:53:27 65° WSW 21:58:13 10° NNW
Cosmos 2322 3.7 21:49:25 10° SSW 21:54:59 63° ESE 22:00:35 10° NE
FALCON 9 DEB 4.0 21:54:51 23° SSE 21:55:01 23° SE 21:57:34 10° E
SL-24 R/B 4.3 21:52:42 10° N 21:57:36 76° E 22:01:29 16° S
OPS 8737 4.3 21:54:32 10° SSW 21:58:25 66° SE 22:01:28 10° NE
Cosmos 2278 Rocket 2.8 21:53:43 10° NNW 21:59:13 49° NE 22:04:01 14° SE
Cosmos 405 3.3 21:56:03 10° NNW 21:59:28 59° W 22:01:49 18° S
Lacrosse 5 4.2 21:59:24 10° WSW 22:00:32 11° WSW 22:01:40 10° SW
Cosmos 2123 Rocket 4.1 21:59:34 10° SSW 22:05:53 79° W 22:12:15 10° N
Cosmos 1844 Rocket 3.9 22:02:56 10° NW 22:07:59 34° WSW 22:12:33 12° SSW
Cosmos 1340 3.1 22:06:52 11° SSW 22:10:23 60° WNW 22:14:09 10° N
Cosmos 1726 Rocket 4.2 22:07:48 10° N 22:12:07 44° ENE 22:14:53 20° SE
Cosmos 2233 Rocket 4.0 22:06:19 10° N 22:12:31 88° W 22:17:17 18° S
H-2A R/B 3.5 22:08:26 10° NNE 22:12:32 75° WNW 22:16:09 13° SSW
Cosmos 1346 Rocket 3.3 22:11:16 22° SSE 22:13:28 46° E 22:17:20 10° NNE
FALCON 9 DEB 3.1 22:10:33 10° WSW 22:13:59 86° NNW 22:17:25 10° ENE
FALCON 9 DEB 3.2 22:12:33 10° SW 22:15:28 41° SSE 22:18:25 10° ENE
GEOS 3 Rocket 3.7 22:11:18 16° SE 22:15:36 87° NE 22:20:59 10° NW
FALCON 9 DEB 3.4 22:18:01 24° SSW 22:19:18 35° SSE 22:22:12 10° ENE
SL-4 R/B 4.0 22:22:17 13° ESE 22:22:17 13° ESE 22:22:59 10° E
Meteor 2-5 Rocket 3.8 22:18:54 12° SSW 22:24:01 78° WNW 22:29:41 10° N
FALCON 9 DEB 3.1 22:21:55 10° SW 22:24:55 45° SSE 22:27:55 10° ENE
Cosmos 1606 Rocket 3.6 22:22:06 10° N 22:26:36 76° ENE 22:29:16 24° SSE
Lacrosse 5 rocket 1.0 22:23:17 10° WSW 22:26:56 81° NNW 22:30:31 10° NE
ATLAS 3B R/B 2.6 22:21:49 10° SW 22:28:23 85° SE 22:35:14 10° NE
SJ 16-02 3.8 22:27:11 10° N 22:29:56 16° NE 22:32:41 10° E
Cosmos 1892 Rocket 4.2 22:29:32 23° SSE 22:31:48 42° E 22:36:00 10° NNE
ALOS 2 3.4 22:32:40 20° SE 22:35:23 43° ENE 22:39:34 10° N
Cosmos 1943 Rocket 3.9 22:34:00 10° NNW 22:38:35 26° NE 22:43:09 10° E
Cosmos 1980 4.3 22:36:00 22° SSE 22:39:08 41° ESE 22:44:26 10° NE
Cosmos 1503 Rocket 4.1 22:34:57 10° NNW 22:40:23 78° ENE 22:43:52 22° SSE
Spot 4 3.8 22:39:08 24° SSE 22:42:03 85° ENE 22:46:52 10° NNW
USA 215 3.2 22:38:47 10° ENE 22:45:17 62° SE 22:51:44 10° SW
Cosmos 2333 Rocket 2.7 22:39:46 10° SW 22:45:28 63° WNW 22:51:11 10° NNE
Meteor 2-10 Rocket 3.9 22:46:42 10° NNW 22:51:39 52° W 22:54:49 21° SSW
Cosmos 2219 Rocket 2.7 22:50:38 10° SW 22:56:15 60° NW 23:01:54 10° NNE
Cosmos 1464 Rocket 4.1 22:51:28 10° N 22:57:52 79° E 23:02:03 23° SSE
Cosmos 1867 4.0 22:53:35 10° NW 22:58:53 50° WSW 23:01:49 25° S
Cosmos 1607 4.0 22:54:11 10° NW 23:00:39 82° SW 23:05:04 21° SSE
Cosmos 389 Rocket 3.6 22:59:29 10° NNW 23:02:36 34° W 23:04:01 24° SW
Iridium 2 3.9 23:05:20 27° SSW 23:07:11 62° W 23:10:56 10° N
COBE Rocket 3.9 23:04:31 26° S 23:07:25 80° WSW 23:12:24 10° NNW
SL-16 R/B 3.5 23:06:17 19° SE 23:08:38 25° ESE 23:13:08 10° NE
Cosmos 2228 4.3 23:07:17 10° NNW 23:11:14 33° W 23:13:45 19° SW
Cosmos 2237 Rocket 2.2 23:09:08 23° S 23:12:39 67° ESE 23:18:15 10° NNE
MTI 4.4 23:10:48 10° NNE 23:13:41 37° E 23:14:12 34° SE
Meteor 1-4 Rocket 3.1 23:12:00 10° N 23:15:23 45° ENE 23:16:45 28° SE
Cosmos 1455 2.8 23:15:20 10° NNW 23:19:01 46° W 23:20:36 28° SSW
Cosmos 2360 Rocket 4.5 23:15:01 10° W 23:19:29 24° NW 23:23:59 10° NNE
USA 267 3.2 23:14:47 15° SE 23:20:23 70° SW 23:26:56 10° WNW
Cosmos 2369 Rocket 3.9 23:16:11 10° NNW 23:21:09 29° NE 23:26:06 10° ESE
ATLAS CENTAUR R/B 3.7 23:21:16 10° W 23:23:11 13° WSW 23:24:30 11° SW
Cosmos 1184 Rocket 2.8 23:22:45 38° SSW 23:23:50 72° WNW 23:27:06 10° N
Okean 1-7 Rocket 3.5 23:27:36 29° S 23:29:50 89° W 23:34:19 10° N
Cosmos 1777 Rocket 4.0 23:24:55 10° NNW 23:30:15 86° ENE 23:33:25 25° SSE
FALCON 9 DEB 2.9 23:27:20 10° WSW 23:30:28 81° NNW 23:33:37 10° ENE
Cosmos-2242 4.4 23:26:39 10° N 23:30:38 32° ENE 23:33:23 17° SE
Cosmos 2034 Rocket 4.0 23:25:44 10° N 23:31:58 84° W 23:35:44 25° S
Meteor 1-21 Rocket 4.3 23:33:20 24° SSW 23:36:51 81° WNW 23:42:37 10° N
COSMOS 2428 3.9 23:32:12 10° WSW 23:37:36 40° NW 23:43:02 10° NNE
Cosmos 192 4.3 23:38:56 24° SSW 23:41:54 83° WNW 23:46:52 10° NNE
Cosmos 2297 3.8 23:36:42 10° NNW 23:42:22 74° ENE 23:46:30 19° SE
Cosmos 2058 Rocket 3.9 23:38:20 10° NNW 23:42:30 39° W 23:44:34 24° SW
Cosmos 1812 Rocket 3.7 23:38:46 10° N 23:43:06 67° ENE 23:45:17 28° SSE
Cosmos 2278 Rocket 3.2 23:38:07 10° NW 23:43:09 34° WSW 23:45:51 22° SSW
Cosmos 724 4.3 23:40:09 10° NW 23:46:23 87° SW 23:50:57 19° SE
GENESIS II 4.5 23:46:51 19° SW 23:49:31 65° NW 23:53:26 10° NE
FALCON 9 DEB 3.4 23:47:58 10° W 23:51:02 58° NNW 23:54:06 10° ENE
FALCON 9 DEB 4.1 23:47:44 10° WNW 23:51:05 50° N 23:54:25 10° ENE
FALCON 9 DEB 3.3 23:51:48 10° W 23:54:54 62° NNW 23:58:01 10° ENE
